USGS Flow Graphs:

Purgatoire River at Madrid,CO
Purgatoire River below Trinidad Lake


Provisional Data Disclaimer

Real time data available on this website are provisional data that have not been reviewed or edited. These data may be subject to significant change and are not citeable until reviewed and approved by Tetra Tech.


Home

From 23-Jun-2017 00:00 To 24-Jun-2017 16:15

Time Series Table

Date/Time MDT SFPR-0.1-pH SFPR-0.1-Temperature SFPR-0.1-Conductivity SFPR-0.1-Chloride PR-37.1-pH PR-37.1-Temperature PR-37.1-Conductivity PR-37.1-Chloride WET-0.3-pH WET-0.3-Temperature WET-0.3-Conductivity WET-0.3-Chloride PR-16.9-pH PR-16.9-Temperature PR-16.9-Conductivity PR-16.9-Chloride LOR-0.2-pH LOR-0.2-Temperature LOR-0.2-Conductivity LOR-0.2-Chloride PR-24.9-pH PR-24.9-Temperature PR-24.9-Conductivity PR-24.9-Chloride SAR-0.4-pH SAR-0.4-Temperature SAR-0.4-Conductivity SAR-0.4-Chloride PR-8.8-pH PR-8.8-Temperature PR-8.8-Conductivity PR-8.8-Chloride LOR-0.2-Discharge PR-16.9-Discharge PR-24.9-Discharge PR-37.1-Discharge SAR-0.4-Discharge SFPR-0.1-Discharge WET-0.3-Discharge REI-1.4-pH REI-1.4-Temperature REI-1.4-Conductivity REI-1.4-Chloride REI-1.4-Discharge PR-8.8-SAR PR-16.9-SAR PR-24.9-SAR
24-Jun-2017 16:00 - - - - - - - - - - - - - - - - - - - - 8.42 16.55 155.60 -0.83 - - - - 8.35 17.47 219.00 3.10 - - 140.91 - - - - - - - - - 0.89 - 0.10
24-Jun-2017 15:45 - - - - - - - - - - - - - - - - - - - - 8.42 16.48 156.20 -0.80 - - - - 8.34 17.20 219.00 3.10 - - 140.91 - - - - - - - - - 0.89 - 0.11
24-Jun-2017 15:30 - - - - - - - - - - - - - - - - - - - - 8.41 16.32 155.90 -0.81 - - - - 8.34 17.03 219.00 3.10 - - 140.91 - - - - - - - - - 0.89 - 0.10
24-Jun-2017 15:15 - - - - - - - - - - - - - - - - - - - - 8.41 16.13 156.50 -0.78 - - - - 8.34 16.92 218.00 3.03 - - 140.91 - - - - - - - - - 0.88 - 0.11
24-Jun-2017 15:00 - - - - - - - - - - - - - - - - - - - - 8.40 15.92 156.00 -0.81 - - - - 8.34 16.64 218.00 3.03 - - 144.62 - - - - - - - - - 0.88 - 0.10
24-Jun-2017 14:45 - - - - - - - - - - - - - - - - - - - - 8.40 15.65 156.30 -0.79 - - - - 8.33 16.28 218.00 3.03 - - 142.76 - - - - - - - - - 0.88 - 0.11
24-Jun-2017 14:30 - - - - - - - - - - - - - - - - - - - - 8.39 15.35 154.50 -0.88 - - - - 8.33 16.01 218.00 3.03 - - 144.62 - - - - - - - - - 0.88 - 0.10
24-Jun-2017 14:15 - - - - - - - - - - - - - - - - - - - - 8.39 15.04 155.20 -0.85 - - - - 8.33 15.77 218.00 3.03 - - 144.62 - - - - - - - - - 0.88 - 0.10
24-Jun-2017 14:00 - - - - - - - - - - - - - - - - - - - - 8.38 14.75 154.80 -0.87 - - - - 8.33 15.43 218.00 3.03 - - 144.62 - - - - - - - - - 0.88 - 0.10
24-Jun-2017 13:45 - - - - - - - - - - - - - - - - - - - - 8.38 14.44 155.40 -0.84 - - - - 8.32 15.10 218.00 3.03 - - 142.76 - - - - - - - - - 0.88 - 0.10
24-Jun-2017 13:30 - - - - - - - - - - - - - - - - - - - - 8.37 14.10 155.60 -0.83 - - - - 8.32 14.70 217.00 2.96 - - 148.40 - - - - - - - - - 0.88 - 0.10
24-Jun-2017 13:15 - - - - - - - - - - - - - - - - - - - - 8.37 13.73 155.10 -0.85 - - - - 8.31 14.39 217.00 2.96 - - 146.50 - - - - - - - - - 0.88 - 0.10
24-Jun-2017 13:00 - - - - - - - - - - - - - - - - - - - - 8.35 13.35 154.90 -0.86 - - - - 8.31 14.05 216.00 2.89 - - 146.50 - - - - - - - - - 0.87 - 0.10
24-Jun-2017 12:45 - - - - - - - - - - - - - - - - - - - - 8.35 12.95 154.50 -0.88 - - - - 8.31 13.76 217.00 2.96 - - 148.40 - - - - - - - - - 0.88 - 0.10
24-Jun-2017 12:30 - - - - - - - - - - - - - - - - - - - - 8.34 12.67 154.20 -0.90 - - - - 8.30 13.46 217.00 2.96 - - 146.50 - - - - - - - - - 0.88 - 0.09
24-Jun-2017 12:15 - - - - - - - - - - - - - - - - - - - - 8.33 12.28 153.70 -0.92 - - - - 8.30 13.13 216.00 2.89 - - 148.40 - - - - - - - - - 0.87 - 0.09
24-Jun-2017 12:00 - - - - - - - - - - - - - - - - - - - - 8.32 11.94 153.80 -0.92 - - - - 8.30 12.80 216.00 2.89 - - 148.40 - - - - - - - - - 0.87 - 0.09
24-Jun-2017 11:45 - - - - - - - - - - - - - - - - - - - - 8.32 11.65 153.20 -0.95 - - - - 8.29 12.58 216.00 2.89 - - 146.50 - - - - - - - - - 0.87 - 0.09
24-Jun-2017 11:30 - - - - - - - - - - - - - - - - - - - - 8.31 11.39 153.30 -0.94 - - - - 8.29 12.38 215.00 2.82 - - 148.40 - - - - - - - - - 0.87 - 0.09
24-Jun-2017 11:15 - - - - - - - - - - - - - - - - - - - - 8.30 11.13 153.70 -0.92 - - - - 8.28 12.23 215.00 2.82 - - 142.76 - - - - - - - - - 0.87 - 0.09
24-Jun-2017 11:00 - - - - - - - - - - - - - - - - - - - - 8.28 10.64 152.40 -0.98 - - - - 8.28 12.09 216.00 2.89 - - 144.62 - - - - - - - - - 0.87 - 0.08
24-Jun-2017 10:45 - - - - - - - - - - - - - - - - - - - - 8.28 10.46 152.80 -0.96 - - - - 8.27 11.96 215.00 2.82 - - 146.50 - - - - - - - - - 0.87 - 0.09
24-Jun-2017 10:30 - - - - - - - - - - - - - - - - - - - - 8.27 10.28 153.10 -0.95 - - - - 8.27 11.79 215.00 2.82 - - 144.62 - - - - - - - - - 0.87 - 0.09
24-Jun-2017 10:15 - - - - - - - - - - - - - - - - - - - - - - - - - - - - 8.26 11.68 215.00 2.82 - - - - - - - - - - - - 0.87 - -
24-Jun-2017 10:00 - - - - - - - - - - - - - - - - - - - - 8.26 10.11 151.80 -1.01 - - - - 8.26 11.59 215.00 2.82 - - 144.62 - - - - - - - - - 0.87 - 0.08
24-Jun-2017 09:45 - - - - - - - - - - - - - - - - - - - - 8.25 9.99 152.50 -0.98 - - - - 8.25 11.53 215.00 2.82 - - 144.62 - - - - - - - - - 0.87 - 0.08
24-Jun-2017 09:30 - - - - - - - - - - - - - - - - - - - - 8.25 9.92 152.70 -0.97 - - - - 8.25 11.49 215.00 2.82 - - 144.62 - - - - - - - - - 0.87 - 0.09
24-Jun-2017 09:15 - - - - - - - - - - - - - - - - - - - - 8.24 9.86 152.60 -0.97 - - - - 8.24 11.44 215.00 2.82 - - 146.50 - - - - - - - - - 0.87 - 0.08
24-Jun-2017 09:00 - - - - - - - - - - - - - - - - - - - - 8.23 9.82 151.80 -1.01 - - - - 8.24 11.40 215.00 2.82 - - 144.62 - - - - - - - - - 0.87 - 0.08
24-Jun-2017 08:45 - - - - - - - - - - - - - - - - - - - - 8.22 9.75 152.60 -0.97 - - - - 8.23 11.37 215.00 2.82 - - 144.62 - - - - - - - - - 0.87 - 0.08
24-Jun-2017 08:30 - - - - - - - - - - - - - - - - - - - - 8.21 9.67 151.40 -1.03 - - - - 8.23 11.34 215.00 2.82 - - 150.31 - - - - - - - - - 0.87 - 0.08
24-Jun-2017 08:15 - - - - - - - - - - - - - - - - - - - - 8.20 9.63 152.20 -0.99 - - - - 8.22 11.32 215.00 2.82 - - 150.31 - - - - - - - - - 0.87 - 0.08
24-Jun-2017 08:00 - - - - - - - - - - - - - - - - - - - - 8.19 9.59 151.40 -1.03 - - - - 8.22 11.30 214.00 2.76 - - 144.62 - - - - - - - - - 0.86 - 0.08
24-Jun-2017 07:45 - - - - - - - - - - - - - - - - - - - - 8.19 9.56 151.80 -1.01 - - - - 8.21 11.29 214.00 2.76 - - 146.50 - - - - - - - - - 0.86 - 0.08
24-Jun-2017 07:30 - - - - - - - - - - - - - - - - - - - - 8.18 9.54 151.70 -1.02 - - - - 8.21 11.28 214.00 2.76 - - 146.50 - - - - - - - - - 0.86 - 0.08
24-Jun-2017 07:15 - - - - - - - - - - - - - - - - - - - - 8.18 9.52 151.30 -1.04 - - - - 8.20 11.26 214.00 2.76 - - 144.62 - - - - - - - - - 0.86 - 0.08
24-Jun-2017 07:00 - - - - - - - - - - - - - - - - - - - - 8.17 9.52 151.90 -1.01 - - - - 8.20 11.25 214.00 2.76 - - 144.62 - - - - - - - - - 0.86 - 0.08
24-Jun-2017 06:45 - - - - - - - - - - - - - - - - - - - - 8.17 9.53 151.90 -1.01 - - - - 8.19 11.25 215.00 2.82 - - 146.50 - - - - - - - - - 0.87 - 0.08
24-Jun-2017 06:30 - - - - - - - - - - - - - - - - - - - - 8.17 9.54 152.00 -1.00 - - - - 8.19 11.26 215.00 2.82 - - 148.40 - - - - - - - - - 0.87 - 0.08
24-Jun-2017 06:15 - - - - - - - - - - - - - - - - - - - - 8.17 9.56 151.80 -1.01 - - - - 8.18 11.28 215.00 2.82 - - 146.50 - - - - - - - - - 0.87 - 0.08
24-Jun-2017 06:00 - - - - - - - - - - - - - - - - - - - - 8.17 9.59 151.30 -1.04 - - - - 8.19 11.30 214.00 2.76 - - 148.40 - - - - - - - - - 0.86 - 0.08
24-Jun-2017 05:45 - - - - - - - - - - - - - - - - - - - - 8.17 9.62 151.70 -1.02 - - - - 8.19 11.32 215.00 2.82 - - 148.40 - - - - - - - - - 0.87 - 0.08
24-Jun-2017 05:30 - - - - - - - - - - - - - - - - - - - - 8.17 9.65 151.30 -1.04 - - - - 8.19 11.35 214.00 2.76 - - 148.40 - - - - - - - - - 0.86 - 0.08
24-Jun-2017 05:15 - - - - - - - - - - - - - - - - - - - - 8.17 9.68 151.50 -1.03 - - - - 8.19 11.38 214.00 2.76 - - 146.50 - - - - - - - - - 0.86 - 0.08
24-Jun-2017 05:00 - - - - - - - - - - - - - - - - - - - - 8.17 9.71 151.30 -1.04 - - - - 8.19 11.42 214.00 2.76 - - 142.76 - - - - - - - - - 0.86 - 0.08
24-Jun-2017 04:45 - - - - - - - - - - - - - - - - - - - - 8.17 9.75 151.10 -1.05 - - - - 8.19 11.46 214.00 2.76 - - 146.50 - - - - - - - - - 0.86 - 0.08
24-Jun-2017 04:30 - - - - - - - - - - - - - - - - - - - - 8.17 9.78 151.40 -1.03 - - - - 8.19 11.49 214.00 2.76 - - 148.40 - - - - - - - - - 0.86 - 0.08
24-Jun-2017 04:15 - - - - - - - - - - - - - - - - - - - - 8.17 9.82 151.40 -1.03 - - - - 8.19 11.53 214.00 2.76 - - 150.31 - - - - - - - - - 0.86 - 0.08
24-Jun-2017 04:00 - - - - - - - - - - - - - - - - - - - - 8.17 9.85 151.90 -1.01 - - - - 8.19 11.57 213.00 2.69 - - 148.40 - - - - - - - - - 0.85 - 0.08
24-Jun-2017 03:45 - - - - - - - - - - - - - - - - - - - - 8.17 9.88 151.50 -1.03 - - - - 8.19 11.61 213.00 2.69 - - 148.40 - - - - - - - - - 0.85 - 0.08
24-Jun-2017 03:30 - - - - - - - - - - - - - - - - - - - - 8.18 9.91 151.60 -1.02 - - - - 8.19 11.64 213.00 2.69 - - 150.31 - - - - - - - - - 0.85 - 0.08
24-Jun-2017 03:15 - - - - - - - - - - - - - - - - - - - - 8.17 9.94 151.40 -1.03 - - - - 8.19 11.68 213.00 2.69 - - 146.50 - - - - - - - - - 0.85 - 0.08
24-Jun-2017 03:00 - - - - - - - - - - - - - - - - - - - - 8.17 9.98 150.90 -1.06 - - - - 8.19 11.73 213.00 2.69 - - 146.50 - - - - - - - - - 0.85 - 0.07
24-Jun-2017 02:45 - - - - - - - - - - - - - - - - - - - - 8.17 10.01 151.50 -1.03 - - - - 8.19 11.77 213.00 2.69 - - 150.31 - - - - - - - - - 0.85 - 0.08
24-Jun-2017 02:30 - - - - - - - - - - - - - - - - - - - - 8.18 10.04 151.40 -1.03 - - - - 8.19 11.81 212.00 2.62 - - 148.40 - - - - - - - - - 0.85 - 0.08
24-Jun-2017 02:15 - - - - - - - - - - - - - - - - - - - - 8.18 10.07 151.40 -1.03 - - - - 8.19 11.85 212.00 2.62 - - 150.31 - - - - - - - - - 0.85 - 0.08
24-Jun-2017 02:00 - - - - - - - - - - - - - - - - - - - - 8.17 10.09 151.40 -1.03 - - - - 8.19 11.88 213.00 2.69 - - 148.40 - - - - - - - - - 0.85 - 0.08
24-Jun-2017 01:45 - - - - - - - - - - - - - - - - - - - - 8.18 10.11 151.10 -1.05 - - - - 8.19 11.92 212.00 2.62 - - 150.31 - - - - - - - - - 0.85 - 0.08
24-Jun-2017 01:30 - - - - - - - - - - - - - - - - - - - - 8.18 10.13 152.00 -1.00 - - - - 8.20 11.96 212.00 2.62 - - 150.31 - - - - - - - - - 0.85 - 0.08
24-Jun-2017 01:15 - - - - - - - - - - - - - - - - - - - - 8.18 10.14 150.80 1,310.71 - - - - 8.19 11.99 212.00 2.62 - - 144.62 - - - - - - - - - 0.85 - 0.07
24-Jun-2017 01:00 - - - - - - - - - - - - - - - - - - - - 8.18 10.16 151.10 -1.05 - - - - 8.20 12.02 211.00 2.55 - - 152.23 - - - - - - - - - 0.84 - 0.08
24-Jun-2017 00:45 - - - - - - - - - - - - - - - - - - - - 8.18 10.17 150.70 -1.07 - - - - 8.20 12.06 212.00 2.62 - - 150.31 - - - - - - - - - 0.85 - 0.07
24-Jun-2017 00:30 - - - - - - - - - - - - - - - - - - - - 8.18 10.19 150.90 -1.06 - - - - 8.20 12.09 212.00 2.62 - - 148.40 - - - - - - - - - 0.85 - 0.07
24-Jun-2017 00:15 - - - - - - - - - - - - - - - - - - - - 8.18 10.21 151.50 -1.03 - - - - 8.20 12.13 211.00 2.55 - - 152.23 - - - - - - - - - 0.84 - 0.08
24-Jun-2017 00:00 - - - - - - - - - - - - - - - - - - - - 8.18 10.22 151.20 -1.04 - - - - 8.20 12.17 211.00 2.55 - - 148.40 - - - - - - - - - 0.84 - 0.08
23-Jun-2017 23:45 - - - - - - - - - - - - - - - - - - - - 8.17 10.24 150.50 -1.08 - - - - 8.20 12.23 211.00 2.55 - - 146.50 - - - - - - - - - 0.84 - 0.07
23-Jun-2017 23:30 - - - - - - - - - - - - - - - - - - - - 8.17 10.27 150.70 -1.07 - - - - 8.20 12.28 210.00 2.48 - - 148.40 - - - - - - - - - 0.84 - 0.07
23-Jun-2017 23:15 - - - - - - - - - - - - - - - - - - - - 8.17 10.29 150.20 -1.09 - - - - 8.20 12.35 211.00 2.55 - - 150.31 - - - - - - - - - 0.84 - 0.07
23-Jun-2017 23:00 - - - - - - - - - - - - - - - - - - - - 8.16 10.31 150.30 -1.09 - - - - 8.20 12.42 211.00 2.55 - - 150.31 - - - - - - - - - 0.84 - 0.07
23-Jun-2017 22:45 - - - - - - - - - - - - - - - - - - - - 8.17 10.34 150.30 -1.09 - - - - 8.20 12.51 210.00 2.48 - - 150.31 - - - - - - - - - 0.84 - 0.07
23-Jun-2017 22:30 - - - - - - - - - - - - - - - - - - - - 8.17 10.37 150.30 -1.09 - - - - 8.21 12.59 210.00 2.48 - - 150.31 - - - - - - - - - 0.84 - 0.07
23-Jun-2017 22:15 - - - - - - - - - - - - - - - - - - - - 8.18 10.41 149.20 -1.14 - - - - 8.22 12.67 210.00 2.48 - - 152.23 - - - - - - - - - 0.84 - 0.07
23-Jun-2017 22:00 - - - - - - - - - - - - - - - - - - - - 8.18 10.45 149.10 -1.14 - - - - 8.22 12.75 209.00 0.00 - - 152.23 - - - - - - - - - 0.83 - 0.06
23-Jun-2017 21:45 - - - - - - - - - - - - - - - - - - - - 8.18 10.49 149.70 -1.12 - - - - 8.23 12.84 209.00 2.42 - - 154.18 - - - - - - - - - 0.83 - 0.07
23-Jun-2017 21:30 - - - - - - - - - - - - - - - - - - - - 8.19 10.52 149.20 -1.14 - - - - 8.23 12.92 209.00 2.42 - - 144.62 - - - - - - - - - 0.83 - 0.07
23-Jun-2017 21:15 - - - - - - - - - - - - - - - - - - - - 8.19 10.57 149.20 -1.14 - - - - 8.24 12.98 209.00 2.42 - - 152.23 - - - - - - - - - 0.83 - 0.07
23-Jun-2017 21:00 - - - - - - - - - - - - - - - - - - - - 8.20 10.61 149.70 -1.12 - - - - 8.24 13.02 209.00 2.42 - - 140.91 - - - - - - - - - 0.83 - 0.07
23-Jun-2017 20:45 - - - - - - - - - - - - - - - - - - - - 8.21 10.67 149.30 -1.13 - - - - 8.25 13.07 209.00 0.00 - - 131.89 - - - - - - - - - 0.83 - 0.07
23-Jun-2017 20:30 - - - - - - - - - - - - - - - - - - - - 8.21 10.74 149.20 -1.14 - - - - 8.26 13.10 209.00 0.00 - - 131.89 - - - - - - - - - 0.83 - 0.07
23-Jun-2017 20:15 - - - - - - - - - - - - - - - - - - - - 8.22 10.80 149.80 -1.11 - - - - 8.26 13.12 209.00 2.42 - - 131.89 - - - - - - - - - 0.83 - 0.07
23-Jun-2017 20:00 - - - - - - - - - - - - - - - - - - - - 8.22 10.86 149.30 -1.13 - - - - 8.27 13.10 209.00 2.42 - - 144.62 - - - - - - - - - 0.83 - 0.07
23-Jun-2017 19:45 - - - - - - - - - - - - - - - - - - - - 8.23 10.92 149.90 -1.11 - - - - 8.28 13.09 208.00 2.35 - - 146.50 - - - - - - - - - 0.82 - 0.07
23-Jun-2017 19:30 - - - - - - - - - - - - - - - - - - - - 8.23 10.97 147.20 -1.24 - - - - 8.28 13.09 208.00 2.35 - - 146.50 - - - - - - - - - 0.82 - 0.05
23-Jun-2017 19:15 - - - - - - - - - - - - - - - - - - - - 8.24 11.02 147.60 -1.22 - - - - 8.29 13.09 208.00 2.35 - - 146.50 - - - - - - - - - 0.82 - 0.06
23-Jun-2017 19:00 - - - - - - - - - - - - - - - - - - - - 8.24 11.06 147.70 -1.21 - - - - 8.29 13.10 208.00 2.35 - - 146.50 - - - - - - - - - 0.82 - 0.06
23-Jun-2017 18:45 - - - - - - - - - - - - - - - - - - - - 8.24 11.08 147.70 -1.21 - - - - 8.29 13.13 208.00 2.35 - - 146.50 - - - - - - - - - 0.82 - 0.06
23-Jun-2017 18:30 - - - - - - - - - - - - - - - - - - - - 8.25 11.11 147.70 -1.21 - - - - 8.29 13.18 207.00 2.28 - - 146.50 - - - - - - - - - 0.82 - 0.06
23-Jun-2017 18:15 - - - - - - - - - - - - - - - - - - - - 8.25 11.12 147.80 -1.21 - - - - 8.29 13.16 207.00 2.28 - - 146.50 - - - - - - - - - 0.82 - 0.06
23-Jun-2017 18:00 - - - - - - - - - - - - - - - - - - - - 8.25 11.13 147.80 -1.21 - - - - 8.29 13.05 207.00 2.28 - - 142.76 - - - - - - - - - 0.82 - 0.06
23-Jun-2017 17:45 - - - - - - - - - - - - - - - - - - - - 8.25 11.14 147.30 -1.23 - - - - 8.29 12.95 207.00 2.28 - - 137.25 - - - - - - - - - 0.82 - 0.05
23-Jun-2017 17:30 - - - - - - - - - - - - - - - - - - - - 8.25 11.08 147.30 -1.23 - - - - 8.29 12.94 206.00 2.21 - - 139.07 - - - - - - - - - 0.81 - 0.05
23-Jun-2017 17:15 - - - - - - - - - - - - - - - - - - - - 8.26 11.04 147.80 -1.21 - - - - 8.29 12.87 206.00 2.21 - - 140.91 - - - - - - - - - 0.81 - 0.06
23-Jun-2017 17:00 - - - - - - - - - - - - - - - - - - - - 8.25 11.04 147.80 -1.21 - - - - 8.29 12.73 206.00 2.21 - - 139.07 - - - - - - - - - 0.81 - 0.06
23-Jun-2017 16:45 - - - - - - - - - - - - - - - - - - - - 8.26 11.02 147.20 -1.24 - - - - 8.29 12.63 205.00 2.14 - - 137.25 - - - - - - - - - 0.80 - 0.05
23-Jun-2017 16:30 - - - - - - - - - - - - - - - - - - - - 8.26 10.98 147.50 -1.22 - - - - 8.29 12.61 205.00 2.14 - - 140.91 - - - - - - - - - 0.80 - 0.06
23-Jun-2017 16:15 - - - - - - - - - - - - - - - - - - - - 8.26 11.00 147.30 -1.23 - - - - 8.29 12.51 205.00 2.14 - - 140.91 - - - - - - - - - 0.80 - 0.05
23-Jun-2017 16:00 - - - - - - - - - - - - - - - - - - - - 8.26 11.00 147.60 -1.22 - - - - 8.29 12.41 205.00 2.14 - - 137.25 - - - - - - - - - 0.80 - 0.06
23-Jun-2017 15:45 - - - - - - - - - - - - - - - - - - - - 8.26 11.02 147.60 -1.22 - - - - 8.28 12.30 205.00 2.14 - - 137.25 - - - - - - - - - 0.80 - 0.06
23-Jun-2017 15:30 - - - - - - - - - - - - - - - - - - - - 8.26 11.04 147.80 -1.21 - - - - 8.28 12.19 205.00 2.14 - - 131.89 - - - - - - - - - 0.80 - 0.06
23-Jun-2017 15:15 - - - - - - - - - - - - - - - - - - - - 8.26 11.02 148.30 -1.18 - - - - 8.28 12.17 204.00 2.08 - - 139.07 - - - - - - - - - 0.80 - 0.06
23-Jun-2017 15:00 - - - - - - - - - - - - - - - - - - - - 8.25 11.01 148.50 -1.17 - - - - 8.27 12.16 203.00 2.01 - - 135.45 - - - - - - - - - 0.79 - 0.06
23-Jun-2017 14:45 - - - - - - - - - - - - - - - - - - - - 8.25 10.98 148.50 -1.17 - - - - 8.27 12.14 204.00 2.08 - - 137.25 - - - - - - - - - 0.80 - 0.06
23-Jun-2017 14:30 - - - - - - - - - - - - - - - - - - - - 8.24 10.94 148.10 -1.19 - - - - 8.27 12.12 203.00 2.01 - - 137.25 - - - - - - - - - 0.79 - 0.06
23-Jun-2017 14:15 - - - - - - - - - - - - - - - - - - - - 8.24 10.85 148.00 -1.20 - - - - 8.26 12.09 203.00 2.01 - - 135.45 - - - - - - - - - 0.79 - 0.06
23-Jun-2017 14:00 - - - - - - - - - - - - - - - - - - - - 8.23 10.74 148.20 -1.19 - - - - 8.26 12.06 203.00 2.01 - - 139.07 - - - - - - - - - 0.79 - 0.06
23-Jun-2017 13:45 - - - - - - - - - - - - - - - - - - - - 8.23 10.51 148.00 -1.20 - - - - 8.26 12.06 203.00 2.01 - - 139.07 - - - - - - - - - 0.79 - 0.06
23-Jun-2017 13:30 - - - - - - - - - - - - - - - - - - - - 8.22 10.35 147.70 -1.21 - - - - 8.25 12.05 203.00 2.01 - - 139.07 - - - - - - - - - 0.79 - 0.06
23-Jun-2017 13:15 - - - - - - - - - - - - - - - - - - - - 8.21 10.25 147.40 -1.23 - - - - 8.25 12.05 203.00 2.01 - - 140.91 - - - - - - - - - 0.79 - 0.05
23-Jun-2017 13:00 - - - - - - - - - - - - - - - - - - - - 8.21 10.18 147.40 -1.23 - - - - 8.24 12.08 203.00 2.01 - - 142.76 - - - - - - - - - 0.79 - 0.05
23-Jun-2017 12:45 - - - - - - - - - - - - - - - - - - - - 8.20 10.10 147.40 -1.23 - - - - 8.24 12.08 202.00 1.94 - - 139.07 - - - - - - - - - 0.79 - 0.05
23-Jun-2017 12:30 - - - - - - - - - - - - - - - - - - - - 8.20 10.04 148.00 -1.20 - - - - 8.24 12.09 202.00 1.94 - - 133.66 - - - - - - - - - 0.79 - 0.06
23-Jun-2017 12:15 - - - - - - - - - - - - - - - - - - - - 8.20 10.01 148.10 -1.19 - - - - 8.23 12.13 202.00 1.94 - - 135.45 - - - - - - - - - 0.79 - 0.06
23-Jun-2017 12:00 - - - - - - - - - - - - - - - - - - - - 8.20 9.98 147.90 -1.20 - - - - 8.23 12.17 202.00 1.94 - - 135.45 - - - - - - - - - 0.79 - 0.06
23-Jun-2017 11:45 - - - - - - - - - - - - - - - - - - - - 8.20 9.95 147.80 -1.21 - - - - 8.23 12.23 202.00 1.94 - - 142.76 - - - - - - - - - 0.79 - 0.06
23-Jun-2017 11:30 - - - - - - - - - - - - - - - - - - - - 8.20 9.92 147.80 -1.21 - - - - 8.22 12.28 202.00 1.94 - - 144.62 - - - - - - - - - 0.79 - 0.06
23-Jun-2017 11:15 - - - - - - - - - - - - - - - - - - - - 8.19 9.90 147.10 -1.24 - - - - 8.22 12.31 201.00 1.87 - - 142.76 - - - - - - - - - 0.78 - 0.05
23-Jun-2017 11:00 - - - - - - - - - - - - - - - - - - - - 8.19 9.89 147.30 -1.23 - - - - 8.21 12.37 201.00 1.87 - - 146.50 - - - - - - - - - 0.78 - 0.05
23-Jun-2017 10:45 - - - - - - - - - - - - - - - - - - - - 8.19 9.86 147.00 -1.25 - - - - 8.21 12.40 201.00 1.87 - - 142.76 - - - - - - - - - 0.78 - 0.05
23-Jun-2017 10:30 - - - - - - - - - - - - - - - - - - - - 8.19 9.81 147.50 -1.22 - - - - 8.21 12.43 201.00 1.87 - - 146.50 - - - - - - - - - 0.78 - 0.06
23-Jun-2017 10:15 - - - - - - - - - - - - - - - - - - - - 8.19 9.77 147.30 -1.23 - - - - 8.20 12.43 201.00 1.87 - - 144.62 - - - - - - - - - 0.78 - 0.05
23-Jun-2017 10:00 - - - - - - - - - - - - - - - - - - - - 8.19 9.74 147.00 -1.25 - - - - 8.19 12.48 201.00 1.87 - - 144.62 - - - - - - - - - 0.78 - 0.05
23-Jun-2017 09:45 - - - - - - - - - - - - - - - - - - - - 8.18 9.72 146.90 -1.25 - - - - 8.19 12.53 201.00 1.87 - - 144.62 - - - - - - - - - 0.78 - 0.05
23-Jun-2017 09:30 - - - - - - - - - - - - - - - - - - - - 8.18 9.70 147.20 -1.24 - - - - 8.19 12.59 201.00 1.87 - - 146.50 - - - - - - - - - 0.78 - 0.05
23-Jun-2017 09:15 - - - - - - - - - - - - - - - - - - - - 8.18 9.68 147.00 -1.25 - - - - 8.19 12.64 201.00 1.87 - - 150.31 - - - - - - - - - 0.78 - 0.05
23-Jun-2017 09:00 - - - - - - - - - - - - - - - - - - - - 8.17 9.65 146.30 -1.28 - - - - 8.19 12.70 201.00 1.87 - - 144.62 - - - - - - - - - 0.78 - 0.05
23-Jun-2017 08:45 - - - - - - - - - - - - - - - - - - - - 8.17 9.65 146.50 -1.27 - - - - 8.18 12.75 202.00 1.94 - - 148.40 - - - - - - - - - 0.79 - 0.05
23-Jun-2017 08:30 - - - - - - - - - - - - - - - - - - - - 8.16 9.63 146.50 -1.27 - - - - 8.18 12.82 201.00 1.87 - - 148.40 - - - - - - - - - 0.78 - 0.05
23-Jun-2017 08:15 - - - - - - - - - - - - - - - - - - - - 8.16 9.61 146.60 -1.27 - - - - 8.18 12.89 201.00 1.87 - - 146.50 - - - - - - - - - 0.78 - 0.05
23-Jun-2017 08:00 - - - - - - - - - - - - - - - - - - - - 8.15 9.60 146.90 -1.25 - - - - 8.18 12.97 201.00 1.87 - - 146.50 - - - - - - - - - 0.78 - 0.05
23-Jun-2017 07:45 - - - - - - - - - - - - - - - - - - - - 8.15 9.61 147.10 -1.24 - - - - 8.18 13.04 202.00 1.94 - - 142.76 - - - - - - - - - 0.79 - 0.05
23-Jun-2017 07:30 - - - - - - - - - - - - - - - - - - - - 8.14 9.61 147.10 -1.24 - - - - 8.17 13.12 201.00 1.87 - - 148.40 - - - - - - - - - 0.78 - 0.05
23-Jun-2017 07:15 - - - - - - - - - - - - - - - - - - - - 8.14 9.63 146.40 -1.28 - - - - 8.17 13.20 201.00 1.87 - - 139.07 - - - - - - - - - 0.78 - 0.05
23-Jun-2017 07:00 - - - - - - - - - - - - - - - - - - - - 8.13 9.66 146.50 -1.27 - - - - 8.17 13.28 201.00 1.87 - - 146.50 - - - - - - - - - 0.78 - 0.05
23-Jun-2017 06:45 - - - - - - - - - - - - - - - - - - - - 8.13 9.71 146.40 -1.28 - - - - 8.16 13.36 201.00 1.87 - - 148.40 - - - - - - - - - 0.78 - 0.05
23-Jun-2017 06:30 - - - - - - - - - - - - - - - - - - - - 8.13 9.77 146.10 -1.29 - - - - 8.16 13.45 202.00 1.94 - - 142.76 - - - - - - - - - 0.79 - 0.05
23-Jun-2017 06:15 - - - - - - - - - - - - - - - - - - - - 8.13 9.85 146.50 -1.27 - - - - 8.16 13.56 202.00 1.94 - - 142.76 - - - - - - - - - 0.79 - 0.05
23-Jun-2017 06:00 - - - - - - - - - - - - - - - - - - - - 8.13 9.94 146.50 -1.27 - - - - 8.16 13.67 202.00 1.94 - - 144.62 - - - - - - - - - 0.79 - 0.05
23-Jun-2017 05:45 - - - - - - - - - - - - - - - - - - - - 8.13 10.03 145.80 -1.30 - - - - 8.16 13.79 202.00 1.94 - - 142.76 - - - - - - - - - 0.79 - 0.05
23-Jun-2017 05:30 - - - - - - - - - - - - - - - - - - - - 8.13 10.14 146.00 -1.29 - - - - 8.16 13.92 202.00 1.94 - - 140.91 - - - - - - - - - 0.79 - 0.05
23-Jun-2017 05:15 - - - - - - - - - - - - - - - - - - - - 8.13 10.25 146.20 -1.29 - - - - 8.16 14.05 202.00 1.94 - - 148.40 - - - - - - - - - 0.79 - 0.05
23-Jun-2017 05:00 - - - - - - - - - - - - - - - - - - - - 8.13 10.37 146.20 -1.29 - - - - 8.16 14.18 202.00 1.94 - - 148.40 - - - - - - - - - 0.79 - 0.05
23-Jun-2017 04:45 - - - - - - - - - - - - - - - - - - - - 8.13 10.49 146.50 -1.27 - - - - 8.17 14.30 203.00 2.01 - - 146.50 - - - - - - - - - 0.79 - 0.05
23-Jun-2017 04:30 - - - - - - - - - - - - - - - - - - - - 8.14 10.60 146.80 -1.26 - - - - 8.17 14.42 203.00 2.01 - - 146.50 - - - - - - - - - 0.79 - 0.05
23-Jun-2017 04:15 - - - - - - - - - - - - - - - - - - - - 8.14 10.73 147.20 -1.24 - - - - 8.17 14.53 202.00 1.94 - - 150.31 - - - - - - - - - 0.79 - 0.05
23-Jun-2017 04:00 - - - - - - - - - - - - - - - - - - - - 8.14 10.85 146.80 -1.26 - - - - 8.17 14.65 202.00 1.94 - - 146.50 - - - - - - - - - 0.79 - 0.05
23-Jun-2017 03:45 - - - - - - - - - - - - - - - - - - - - 8.14 10.99 147.10 -1.24 - - - - 8.17 14.76 202.00 1.94 - - 148.40 - - - - - - - - - 0.79 - 0.05
23-Jun-2017 03:30 - - - - - - - - - - - - - - - - - - - - 8.14 11.13 147.00 -1.25 - - - - 8.17 14.87 203.00 2.01 - - 142.76 - - - - - - - - - 0.79 - 0.05
23-Jun-2017 03:15 - - - - - - - - - - - - - - - - - - - - 8.14 11.27 146.80 -1.26 - - - - 8.18 14.98 203.00 2.01 - - 146.50 - - - - - - - - - 0.79 - 0.05
23-Jun-2017 03:00 - - - - - - - - - - - - - - - - - - - - 8.14 11.41 147.30 -1.23 - - - - 8.18 15.11 203.00 2.01 - - 144.62 - - - - - - - - - 0.79 - 0.05
23-Jun-2017 02:45 - - - - - - - - - - - - - - - - - - - - 8.14 11.56 147.30 -1.23 - - - - 8.18 15.23 203.00 2.01 - - 150.31 - - - - - - - - - 0.79 - 0.05
23-Jun-2017 02:30 - - - - - - - - - - - - - - - - - - - - 8.14 11.72 147.40 -1.23 - - - - 8.18 15.35 203.00 2.01 - - 150.31 - - - - - - - - - 0.79 - 0.05
23-Jun-2017 02:15 - - - - - - - - - - - - - - - - - - - - 8.15 11.87 146.50 -1.27 - - - - 8.19 15.47 203.00 2.01 - - 148.40 - - - - - - - - - 0.79 - 0.05
23-Jun-2017 02:00 - - - - - - - - - - - - - - - - - - - - 8.15 12.03 146.20 -1.29 - - - - 8.19 15.58 203.00 2.01 - - 148.40 - - - - - - - - - 0.79 - 0.05
23-Jun-2017 01:45 - - - - - - - - - - - - - - - - - - - - 8.15 12.19 146.20 -1.29 - - - - 8.19 15.68 203.00 2.01 - - 144.62 - - - - - - - - - 0.79 - 0.05
23-Jun-2017 01:30 - - - - - - - - - - - - - - - - - - - - 8.15 12.36 146.80 -1.26 - - - - 8.19 15.78 203.00 2.01 - - 146.50 - - - - - - - - - 0.79 - 0.05
23-Jun-2017 01:15 - - - - - - - - - - - - - - - - - - - - 8.15 12.53 147.00 -1.25 - - - - 8.19 15.87 203.00 2.01 - - 144.62 - - - - - - - - - 0.79 - 0.05
23-Jun-2017 01:00 - - - - - - - - - - - - - - - - - - - - 8.15 12.70 147.10 -1.24 - - - - 8.19 15.96 203.00 2.01 - - 146.50 - - - - - - - - - 0.79 - 0.05
23-Jun-2017 00:45 - - - - - - - - - - - - - - - - - - - - 8.15 12.88 146.70 -1.26 - - - - 8.19 16.06 203.00 2.01 - - 148.40 - - - - - - - - - 0.79 - 0.05
23-Jun-2017 00:30 - - - - - - - - - - - - - - - - - - - - 8.15 13.06 146.90 -1.25 - - - - 8.20 16.15 203.00 2.01 - - 142.76 - - - - - - - - - 0.79 - 0.05
23-Jun-2017 00:15 - - - - - - - - - - - - - - - - - - - - 8.15 13.25 147.40 -1.23 - - - - 8.20 16.23 203.00 2.01 - - 144.62 - - - - - - - - - 0.79 - 0.05
23-Jun-2017 00:00 - - - - - - - - - - - - - - - - - - - - 8.16 13.43 147.90 -1.20 - - - - 8.20 16.30 203.00 2.01 - - 146.50 - - - - - - - - - 0.79 - 0.06